[[{"header":{"parameterUnit":"m.s-1","parameterCategory":1,"la1":30.2991,"la2":30.254,"lo1":-89.0895,"lo2":-89.0444,"dy":0.0017,"dx":0.0017,"nx":28,"ny":28,"refTime":"2024-10-07T09:00:00:Z","depth":0,"parameterNumber":2,"parameterNumberName":"U-component_of_WINDS"},"data":[0,0,0,0,0,0,0,0,0,0,0,0,0,0,0,0,0,0,0,0,0,0,0,0,0,0,0,0,0,0,0,0,0,0,0,0,0,0,0,0,0,0,0,0,0,0,0,0,0,0,0,0,0,0,0,0,0,0,-2.3389,-2.3389,0,-2.3353,-2.3353,-2.3352,-2.3328,-2.3328,-2.3327,-2.3327,-2.329,-2.3289,-2.3288,0,0,0,0,0,0,0,0,0,0,0,0,0,-2.3437,-2.3436,-2.3389,-2.3389,-2.3388,-2.3353,-2.3353,-2.3352,-2.3328,-2.3328,-2.3327,-2.3327,-2.329,-2.3289,-2.3288,0,0,0,0,0,0,0,0,0,0,0,0,0,-2.341,-2.3436,-2.3389,-2.3372,-2.337,-2.3353,-2.3353,-2.3352,-2.3328,-2.3328,-2.3327,-2.3327,-2.3291,-2.3289,-2.3288,-2.3286,0,0,-2.3284,-2.3284,0,0,0,0,0,0,0,0,-2.3412,-2.3408,-2.3375,-2.3373,-2.3371,-2.3345,-2.3356,-2.333,-2.3328,-2.3344,-2.3327,-2.3327,-2.3308,-2.3306,-2.3299,-2.3284,-2.3283,-2.3284,-2.3284,-2.3283,-2.3283,0,0,0,0,0,0,0,-2.3414,-2.341,-2.3375,-2.3375,-2.3372,-2.3366,-2.3362,-2.3351,-2.3328,-2.3342,-2.3341,-2.3337,-2.3307,-2.3301,-2.3298,-2.3282,-2.3284,-2.3283,-2.3282,-2.3282,-2.3263,-2.3263,0,0,0,0,0,0,-2.3418,-2.3411,-2.3376,-2.3374,-2.3391,-2.3365,-2.3361,-2.3353,-2.3328,-2.3324,-2.3337,-2.3336,-2.3303,-2.33,-2.3297,-2.3293,-2.3283,-2.3282,-2.3281,-2.3263,-2.3263,-2.3264,0,0,0,0,0,0,-2.3419,-2.3415,-2.3378,-2.3392,-2.3387,-2.3365,-2.3357,-2.3353,-2.3346,-2.3324,-2.332,-2.3334,-2.3303,-2.3299,-2.3289,-2.3291,-2.3281,-2.328,-2.3263,-2.3263,-2.3263,-2.3284,0,0,0,0,0,0,-2.3421,-2.3416,-2.3415,-2.3392,-2.3386,-2.337,-2.3357,-2.3352,-2.3344,-2.3342,-2.3321,-2.3317,-2.3302,-2.3291,-2.3288,-2.3289,-2.3279,-2.3262,-2.3263,-2.3263,-2.3283,-2.3285,-2.3286,0,0,0,0,0,-2.3423,-2.3422,-2.3415,-2.3411,-2.3384,-2.337,-2.3367,-2.335,-2.3345,-2.3343,-2.3329,-2.3317,-2.3292,-2.329,-2.3286,-2.3287,-2.3262,-2.3263,-2.3263,-2.3282,-2.3284,-2.3286,0,0,0,0,0,0,-2.3444,-2.3418,-2.341,-2.3402,-2.3389,-2.3366,-2.3364,-2.3353,-2.3341,-2.3339,-2.3319,-2.3315,-2.3307,-2.3296,-2.3295,-2.3284,-2.3275,-2.3275,-2.3291,-2.3293,-2.3295,-2.3297,-2.3278,0,0,0,0,0,-2.3448,-2.3439,-2.3417,-2.3412,-2.3405,-2.3386,-2.3379,-2.3368,-2.3353,-2.3347,-2.3332,-2.3318,-2.3306,-2.3299,-2.3288,-2.3282,-2.3276,-2.328,-2.3282,-2.3284,-2.3284,-2.328,-2.3281,-2.3265,-2.3265,-2.3265,0,0,-2.3456,-2.3441,-2.3436,-2.3416,-2.3404,-2.3395,-2.3381,-2.3372,-2.3365,-2.3345,-2.3335,-2.3324,-2.3307,-2.3299,-2.3295,-2.329,-2.3287,-2.3285,-2.3286,-2.3285,-2.3281,-2.3282,-2.3283,-2.3266,-2.3266,-2.3266,0,0,-2.3465,-2.3453,-2.3447,-2.3436,-2.3418,-2.3406,-2.3405,-2.3384,-2.3375,-2.3365,-2.335,-2.3342,-2.3323,-2.3311,-2.3303,-2.3309,-2.3298,-2.3306,-2.3315,-2.3312,-2.3313,-2.3314,-2.3316,-2.3317,-2.3306,-2.3306,-2.3306,0,-2.3477,-2.3463,-2.3446,-2.3438,-2.3429,-2.3412,-2.3406,-2.3396,-2.3375,-2.337,-2.3365,-2.3341,-2.3328,-2.3317,-2.3319,-2.3313,-2.3311,-2.3308,-2.3314,-2.3315,-2.3316,-2.3317,-2.3318,-2.3307,-2.3307,-2.3307,-2.3307,0,-2.3478,-2.3468,-2.3466,-2.3447,-2.3438,-2.3431,-2.3414,-2.3407,-2.3397,-2.3385,-2.3374,-2.3359,-2.3344,-2.3341,-2.333,-2.3328,-2.3326,-2.3318,-2.3309,-2.3319,-2.332,-2.332,-2.3309,-2.3308,-2.3308,-2.3308,0,0,-2.3498,-2.3471,-2.347,-2.3462,-2.3442,-2.3434,-2.3427,-2.3412,-2.3407,-2.3394,-2.3387,-2.3372,-2.3364,-2.3355,-2.3343,-2.334,-2.3346,-2.3333,-2.3332,-2.3335,-2.3343,-2.3349,-2.335,-2.3339,-2.3339,-2.3339,-2.3344,0,-2.3504,-2.349,-2.3475,-2.3466,-2.3457,-2.3441,-2.3434,-2.3421,-2.341,-2.3401,-2.3388,-2.3378,-2.3369,-2.3363,-2.336,-2.3346,-2.3347,-2.3346,-2.3332,-2.3332,-2.3336,-2.335,-2.3356,-2.3362,-2.3345,-2.3345,-2.3345,0,-2.3509,-2.3497,-2.3487,-2.3468,-2.3464,-2.3458,-2.3444,-2.3435,-2.3421,-2.3413,-2.3403,-2.3391,-2.3382,-2.3375,-2.3363,-2.3363,-2.3356,-2.3349,-2.3349,-2.3346,-2.3338,-2.3348,-2.3363,-2.3364,-2.3345,-2.3345,-2.3345,0,-2.3524,-2.3506,-2.3497,-2.349,-2.3468,-2.3465,-2.3456,-2.3441,-2.3433,-2.3421,-2.3416,-2.3403,-2.3396,-2.3386,-2.3371,-2.3367,-2.3361,-2.3352,-2.3354,-2.3354,-2.3352,-2.3352,-2.3366,-2.335,-2.335,-2.335,-2.335,0,-2.3532,-2.3526,-2.3504,-2.3499,-2.3492,-2.3476,-2.347,-2.3459,-2.3446,-2.3438,-2.3424,-2.3417,-2.3398,-2.3389,-2.3377,-2.3369,-2.3366,-2.336,-2.3356,-2.336,-2.3361,-2.3355,-2.3354,-2.335,-2.335,-2.335,-2.335,0,-2.3547,-2.3532,-2.3522,-2.3503,-2.3498,-2.3494,-2.3477,-2.3471,-2.346,-2.3451,-2.3447,-2.3429,-2.3418,-2.3402,-2.3386,-2.3378,-2.3372,-2.3367,-2.3377,-2.3375,-2.3377,-2.3377,-2.3387,-2.3387,-2.3371,-2.3371,-2.3372,0,-2.3553,-2.3548,-2.3528,-2.3522,-2.3514,-2.3504,-2.3497,-2.3481,-2.3473,-2.3457,-2.3453,-2.3441,-2.343,-2.3413,-2.3399,-2.3387,-2.3381,-2.3386,-2.3379,-2.3383,-2.338,-2.3381,-2.338,-2.3387,-2.3387,-2.3387,-2.3387,0,-2.3564,-2.3557,-2.3546,-2.3534,-2.3525,-2.3515,-2.3503,-2.3499,-2.3481,-2.3473,-2.3462,-2.3454,-2.3438,-2.3426,-2.3412,-2.3402,-2.3392,-2.339,-2.3389,-2.3393,-2.3399,-2.3395,-2.338,-2.3389,-2.3389,-2.3389,-2.3389,-2.3389,-2.3574,-2.3569,-2.3555,-2.3544,-2.3534,-2.3524,-2.3518,-2.3506,-2.3496,-2.3482,-2.3473,-2.3462,-2.3448,-2.3428,-2.3419,-2.341,-2.3406,-2.3406,-2.3405,-2.3405,-2.3407,-2.3401,-2.3408,-2.3408,-2.3408,-2.3408,-2.3408,0,-2.3583,-2.3574,-2.3564,-2.3549,-2.354,-2.3532,-2.3519,-2.3513,-2.3503,-2.3491,-2.3481,-2.3468,-2.3457,-2.3442,-2.343,-2.3426,-2.342,-2.3423,-2.3423,-2.342,-2.3411,-2.3413,-2.3427,-2.3427,-2.3427,-2.3427,-2.3427,-2.3427,-2.3587,-2.3579,-2.3571,-2.3557,-2.3548,-2.3537,-2.353,-2.3521,-2.3511,-2.3498,-2.3488,-2.3479,-2.3465,-2.3452,-2.3441,-2.3437,-2.3433,-2.3437,-2.3431,-2.3423,-2.3421,-2.3419,-2.3421,-2.3436,-2.3436,-2.3441,-2.3441,-2.3441]},{"header":{"parameterUnit":"m.s-1","parameterCategory":1,"la1":30.2991,"la2":30.254,"lo1":-89.0895,"lo2":-89.0444,"dy":0.0017,"dx":0.0017,"nx":28,"ny":28,"refTime":"2024-10-07T09:00:00:Z","depth":0,"parameterNumber":3,"parameterNumberName":"V-component_of_WINDS"},"data":[0,0,0,0,0,0,0,0,0,0,0,0,0,0,0,0,0,0,0,0,0,0,0,0,0,0,0,0,0,0,0,0,0,0,0,0,0,0,0,0,0,0,0,0,0,0,0,0,0,0,0,0,0,0,0,0,0,0,-3.403,-3.403,0,-3.4018,-3.4017,-3.4017,-3.4062,-3.4064,-3.4065,-3.4066,-3.405,-3.4049,-3.4047,0,0,0,0,0,0,0,0,0,0,0,0,0,-3.4092,-3.4091,-3.403,-3.403,-3.403,-3.4018,-3.4017,-3.4017,-3.4062,-3.4064,-3.4065,-3.4067,-3.4051,-3.4049,-3.4047,0,0,0,0,0,0,0,0,0,0,0,0,0,-3.4071,-3.409,-3.403,-3.4051,-3.4053,-3.4018,-3.4017,-3.4017,-3.4062,-3.4064,-3.4066,-3.4068,-3.4051,-3.4049,-3.4047,-3.399,0,0,-3.4039,-3.4038,0,0,0,0,0,0,0,0,-3.4072,-3.4069,-3.4048,-3.4049,-3.4051,-3.4044,-3.4033,-3.4008,-3.4061,-3.4058,-3.4066,-3.4069,-3.4046,-3.4044,-3.4037,-3.3989,-3.3989,-3.4039,-3.4037,-3.4036,-3.4035,0,0,0,0,0,0,0,-3.4073,-3.4069,-3.4025,-3.4048,-3.405,-3.406,-3.406,-3.4029,-3.4041,-3.4059,-3.4062,-3.406,-3.4047,-3.404,-3.4037,-3.3988,-3.4039,-3.4036,-3.4035,-3.4034,-3.3896,-3.3894,0,0,0,0,0,0,-3.4073,-3.407,-3.4025,-3.4025,-3.4067,-3.4058,-3.4057,-3.4044,-3.4041,-3.4043,-3.4058,-3.4062,-3.4043,-3.404,-3.4037,-3.3972,-3.4036,-3.4034,-3.4032,-3.3899,-3.3896,-3.3894,0,0,0,0,0,0,-3.4074,-3.4068,-3.4026,-3.4048,-3.4044,-3.4055,-3.404,-3.4043,-3.4035,-3.4041,-3.4043,-3.4048,-3.4044,-3.404,-3.4002,-3.3972,-3.4032,-3.403,-3.3901,-3.3898,-3.3895,-3.3841,0,0,0,0,0,0,-3.4075,-3.4068,-3.4047,-3.4048,-3.4043,-3.3991,-3.4038,-3.4041,-3.4031,-3.4036,-3.4032,-3.4033,-3.4046,-3.4006,-3.4,-3.397,-3.4028,-3.3904,-3.39,-3.3896,-3.3845,-3.3836,-3.3829,0,0,0,0,0,-3.4077,-3.4031,-3.4045,-3.404,-3.4016,-3.399,-3.3987,-3.4003,-3.4028,-3.4007,-3.4011,-3.4033,-3.3977,-3.4001,-3.3995,-3.3964,-3.3906,-3.3901,-3.3896,-3.3849,-3.3838,-3.3829,0,0,0,0,0,0,-3.4024,-3.4031,-3.4047,-3.4,-3.3994,-3.3997,-3.397,-3.399,-3.3976,-3.3981,-3.4001,-3.4,-3.3958,-3.3957,-3.3985,-3.3911,-3.3946,-3.3939,-3.3912,-3.3902,-3.3893,-3.3894,-3.4026,0,0,0,0,0,-3.4007,-3.3986,-3.3993,-3.395,-3.3947,-3.3959,-3.3948,-3.3962,-3.3956,-3.3953,-3.3955,-3.3947,-3.3929,-3.3915,-3.3898,-3.3846,-3.3847,-3.3822,-3.3814,-3.3807,-3.38,-3.3775,-3.3765,-3.3878,-3.3878,-3.3878,0,0,-3.3971,-3.3972,-3.3957,-3.394,-3.3937,-3.3914,-3.3956,-3.393,-3.3913,-3.3949,-3.3913,-3.3914,-3.3908,-3.3864,-3.3844,-3.3862,-3.377,-3.38,-3.3795,-3.3793,-3.3769,-3.3759,-3.3749,-3.3875,-3.3875,-3.3876,0,0,-3.3894,-3.3892,-3.3858,-3.3855,-3.3851,-3.386,-3.3852,-3.3853,-3.3856,-3.3821,-3.3848,-3.3828,-3.3794,-3.379,-3.3782,-3.3708,-3.3728,-3.3702,-3.3657,-3.3632,-3.3623,-3.3615,-3.3589,-3.358,-3.3696,-3.3696,-3.3696,0,-3.3849,-3.3816,-3.3837,-3.381,-3.3802,-3.3835,-3.3801,-3.3797,-3.3786,-3.378,-3.3801,-3.3761,-3.3759,-3.3715,-3.3697,-3.369,-3.3682,-3.3701,-3.3623,-3.3615,-3.3608,-3.3584,-3.3574,-3.3692,-3.3693,-3.3693,-3.3693,0,-3.3762,-3.3739,-3.3712,-3.3704,-3.3693,-3.3662,-3.3678,-3.3665,-3.368,-3.3687,-3.3653,-3.3652,-3.3636,-3.3627,-3.364,-3.3585,-3.3597,-3.362,-3.3655,-3.3594,-3.3571,-3.3562,-3.3688,-3.3689,-3.369,-3.3691,0,0,-3.3647,-3.3654,-3.3644,-3.3642,-3.3641,-3.3624,-3.3596,-3.3582,-3.357,-3.3563,-3.354,-3.3513,-3.3535,-3.3527,-3.3541,-3.3519,-3.3462,-3.3545,-3.3546,-3.353,-3.3403,-3.3385,-3.3374,-3.3476,-3.3474,-3.3473,-3.3403,0,-3.3572,-3.3525,-3.3544,-3.3495,-3.3475,-3.3508,-3.3484,-3.3481,-3.3488,-3.3472,-3.3479,-3.346,-3.349,-3.3486,-3.3467,-3.3473,-3.3436,-3.3478,-3.3455,-3.3454,-3.3455,-3.3362,-3.3342,-3.3276,-3.3395,-3.3393,-3.3392,0,-3.3477,-3.3469,-3.3418,-3.3424,-3.3416,-3.3394,-3.3384,-3.3369,-3.3367,-3.3374,-3.3367,-3.3387,-3.336,-3.3397,-3.336,-3.3388,-3.3381,-3.3383,-3.338,-3.3378,-3.3418,-3.3357,-3.3256,-3.3246,-3.3378,-3.3379,-3.338,0,-3.34,-3.3375,-3.3342,-3.3339,-3.3345,-3.3329,-3.3331,-3.3332,-3.3323,-3.3315,-3.331,-3.3298,-3.3291,-3.3282,-3.3298,-3.3323,-3.326,-3.3298,-3.3265,-3.3265,-3.3249,-3.3249,-3.3145,-3.3244,-3.3244,-3.3245,-3.3245,0,-3.3313,-3.328,-3.3308,-3.3288,-3.3253,-3.3277,-3.3242,-3.3247,-3.3248,-3.3229,-3.3257,-3.3239,-3.3262,-3.3247,-3.326,-3.3228,-3.3225,-3.323,-3.3233,-3.3227,-3.3226,-3.3221,-3.3226,-3.3242,-3.3242,-3.3243,-3.3243,0,-3.3219,-3.3237,-3.3203,-3.3213,-3.3215,-3.3189,-3.3198,-3.3179,-3.319,-3.3166,-3.3162,-3.3178,-3.3161,-3.3178,-3.3161,-3.317,-3.3128,-3.3139,-3.3129,-3.3132,-3.3099,-3.3102,-3.2986,-3.2973,-3.3081,-3.308,-3.3079,0,-3.3162,-3.3139,-3.3148,-3.3138,-3.3139,-3.3123,-3.3115,-3.3138,-3.3129,-3.3128,-3.311,-3.3096,-3.3086,-3.3059,-3.3068,-3.3057,-3.3067,-3.3028,-3.3065,-3.3061,-3.3067,-3.3068,-3.3067,-3.302,-3.3018,-3.3017,-3.3016,0,-3.306,-3.3071,-3.3059,-3.3052,-3.3043,-3.3037,-3.3034,-3.3024,-3.3049,-3.3037,-3.3022,-3.3015,-3.3,-3.2986,-3.2978,-3.298,-3.3002,-3.3005,-3.2997,-3.299,-3.2985,-3.2988,-3.3108,-3.3007,-3.3008,-3.3009,-3.3009,-3.301,-3.2983,-3.2965,-3.2969,-3.2956,-3.2957,-3.2954,-3.2939,-3.2948,-3.2936,-3.2927,-3.2942,-3.2923,-3.2925,-3.2917,-3.2916,-3.2902,-3.2919,-3.2907,-3.2904,-3.29,-3.2896,-3.2989,-3.2901,-3.2901,-3.2901,-3.2902,-3.2902,0,-3.2883,-3.2888,-3.2876,-3.2873,-3.2863,-3.2887,-3.2886,-3.2876,-3.2859,-3.286,-3.2851,-3.2834,-3.2822,-3.2833,-3.2823,-3.2809,-3.282,-3.2806,-3.2807,-3.2807,-3.2881,-3.2889,-3.2798,-3.2798,-3.2798,-3.2798,-3.2798,-3.2798,-3.2829,-3.28,-3.2812,-3.2784,-3.279,-3.2773,-3.277,-3.2768,-3.2769,-3.275,-3.274,-3.2748,-3.2753,-3.2745,-3.2735,-3.2739,-3.2734,-3.2716,-3.2723,-3.2792,-3.2802,-3.2811,-3.2819,-3.2715,-3.2715,-3.2651,-3.2651,-3.265]}]]